Location: Zapote
(9.9191°N, 84.0597°W)
Time: 13:11:10
(UTC-06:00)

Vanguard 1 - All Passes

Search period start: 04 March 2021 00:00
Search period end: 14 March 2021 00:00
Orbit: 649 x 3834 km, 34.2° (Epoch: 03 March)

Date Brightness Start Highest point End Pass type
(mag) Time Alt. Az. Time Alt. Az. Time Alt. Az.
04 Mar - 00:33:13 10° WSW 00:41:55 43° NW 00:47:11 10° NE night (unlit)
04 Mar - 07:43:40 10° NNW 07:49:06 31° NE 07:57:44 10° E daylight
04 Mar - 10:02:15 10° WNW 10:10:30 68° SSW 10:26:19 10° SE daylight
04 Mar - 12:25:44 10° WSW 12:36:01 25° SSW 12:51:06 10° SSE daylight
04 Mar - 20:03:58 10° SSW 20:16:47 22° SSE 20:25:34 10° ESE visible
04 Mar - 22:28:03 10° SW 22:41:47 63° SSE 22:49:01 10° ENE visible
05 Mar - 00:55:37 10° W 01:02:43 28° NW 01:07:27 10° NNE night (unlit)
05 Mar - 08:04:00 10° NW 08:09:56 46° NE 08:20:16 10° ESE daylight
05 Mar - 10:23:27 10° WNW 10:31:54 50° SSW 10:47:25 10° SE daylight
05 Mar - 12:49:07 10° WSW 12:58:31 19° SSW 13:11:08 10° SSE daylight
05 Mar - 18:02:59 10° S 18:09:20 12° SSE 18:15:04 10° SSE visible
05 Mar - 20:24:11 10° SSW 20:38:57 30° SSE 20:48:12 10° E visible
05 Mar - 22:49:25 10° SW 23:02:56 88° SSE 23:09:57 10° NE visible
06 Mar - 01:18:37 10° WNW 01:23:39 18° NW 01:27:26 10° N night (unlit)
06 Mar - 06:09:11 10° NNE 06:10:06 10° NNE 06:11:04 10° NE daylight
06 Mar - 08:24:31 10° NW 08:30:46 68° NE 08:42:21 10° ESE daylight
06 Mar - 10:45:01 10° W 10:53:33 37° SSW 11:08:13 10° SSE daylight
06 Mar - 13:13:49 10° SW 13:21:25 14° SSW 13:30:38 10° S daylight
06 Mar - 18:21:48 10° S 18:32:43 16° SSE 18:41:36 10° SE visible
06 Mar - 20:44:44 10° SSW 21:00:51 40° SSE 21:10:10 10° E visible
06 Mar - 23:11:11 10° WSW 23:23:55 67° NW 23:30:40 10° NE visible
07 Mar - 01:42:38 10° NW 01:44:46 11° NNW 01:46:39 10° N night (unlit)
07 Mar - 06:27:49 10° N 06:31:13 17° NE 06:35:33 10° ENE daylight
07 Mar - 08:45:14 10° WNW 08:51:44 85° SW 09:04:01 10° SE daylight
07 Mar - 11:07:03 10° W 11:15:26 27° SSW 11:28:40 10° SSE daylight
07 Mar - 13:41:27 10° SSW 13:44:48 11° SSW 13:48:22 10° S daylight
07 Mar - 18:41:33 10° SSW 18:55:36 21° SSE 19:06:05 10° ESE visible
07 Mar - 21:05:36 10° SW 21:22:30 53° SSE 21:31:41 10° ENE visible
07 Mar - 23:33:21 10° WSW 23:44:47 46° NW 23:51:11 10° NE visible
08 Mar - 06:47:44 10° NNW 06:52:08 27° NE 06:58:28 10° E daylight
08 Mar - 09:06:11 10° WNW 09:12:52 59° SSW 09:25:18 10° SE daylight
08 Mar - 11:29:48 10° WSW 11:37:35 20° SSW 11:48:44 10° SSE daylight
08 Mar - 16:42:23 10° S 16:46:12 11° SSE 16:49:56 10° SSE daylight
08 Mar - 19:01:41 10° SSW 19:18:06 27° SSE 19:29:22 10° E visible
08 Mar - 21:26:47 10° SW 21:43:56 71° SE 21:52:52 10° ENE visible
08 Mar - 23:56:00 10° W 00:05:38 32° NW 00:11:32 10° NNE night (unlit)
09 Mar - 07:08:00 10° NW 07:12:56 42° NE 07:20:47 10° ESE daylight
09 Mar - 09:27:28 10° W 09:34:15 41° SSW 09:46:12 10° SE daylight
09 Mar - 11:53:40 10° SW 12:00:02 15° SSW 12:08:11 10° S daylight
09 Mar - 17:00:08 10° S 17:10:05 14° SSE 17:19:04 10° SE daylight
09 Mar - 19:22:07 10° SSW 19:40:17 36° SSE 19:51:51 10° E visible
09 Mar - 21:48:19 10° SW 22:05:09 88° NW 22:13:48 10° NE visible
10 Mar - 00:19:08 10° W 00:26:37 22° NW 00:31:42 10° NNE night (unlit)
10 Mar - 07:28:30 10° NW 07:33:45 69° NE 07:42:39 10° ESE daylight
10 Mar - 09:49:09 10° W 09:55:51 29° SSW 10:06:44 10° SSE daylight
10 Mar - 12:20:27 10° SSW 12:22:53 10° SSW 12:25:31 10° S daylight
10 Mar - 17:19:37 10° SSW 17:33:25 18° SSE 17:44:57 10° ESE daylight
10 Mar - 19:42:49 10° SW 20:02:13 47° SSE 20:13:45 10° ENE visible
10 Mar - 22:10:16 10° WSW 22:26:12 67° NW 22:34:31 10° NE visible
11 Mar - 00:42:51 10° WNW 00:47:47 15° NNW 00:51:35 10° N night (unlit)
11 Mar - 05:31:54 10° N 05:34:26 14° NNE 05:37:20 10° ENE daylight
11 Mar - 07:49:16 10° WNW 07:54:39 77° SW 08:04:05 10° SE daylight
11 Mar - 10:11:27 10° WSW 10:17:40 21° SSW 10:26:49 10° SSE daylight
11 Mar - 17:39:35 10° SSW 17:56:16 24° SSE 18:09:16 10° ESE visible
11 Mar - 20:03:47 10° SW 20:23:54 60° SE 20:35:15 10° ENE visible
11 Mar - 22:32:38 10° WSW 22:47:11 50° NW 22:55:06 10° NE visible
12 Mar - 01:07:54 10° NW 01:09:10 10° NNW 01:10:21 10° NNW night (unlit)
12 Mar - 05:51:40 10° NNW 05:55:25 24° NE 06:00:09 10° E daylight
12 Mar - 08:10:18 10° WNW 08:15:46 49° SSW 08:25:06 10° SE daylight
12 Mar - 10:34:46 10° SW 10:39:45 14° SSW 10:46:11 10° S daylight
12 Mar - 15:40:48 10° S 15:46:45 11° SSE 15:52:39 10° SE daylight
12 Mar - 17:59:49 10° SSW 18:18:44 32° SSE 18:32:30 10° E visible
12 Mar - 20:25:05 10° SW 20:45:24 76° SE 20:56:26 10° ENE visible
12 Mar - 22:55:29 10° W 23:08:10 37° NW 23:15:32 10° NNE visible
13 Mar - 06:11:54 10° NW 06:16:14 41° NE 06:22:15 10° ESE daylight
13 Mar - 08:31:43 10° W 08:37:06 32° SSW 08:45:43 10° SSE daylight
13 Mar - 15:59:02 10° S 16:10:28 15° SSE 16:21:19 10° SE daylight
13 Mar - 18:20:19 10° SSW 18:40:54 41° SSE 18:54:57 10° E visible
13 Mar - 20:46:43 10° SW 21:06:42 86° NW 21:17:22 10° NE visible
13 Mar - 23:18:47 10° W 23:29:16 27° NW 23:35:52 10° NNE visible
